,,,PA_Meas_PMT16A,,PR_Meas_QMR101_102,,RH_Meas_QMH101,,SR_Meas_QMS101,,TA_Meas_QMH101,,GenWind,,GenWind,
date,time,status,PA,status,PR,status,RH,status,SR,status,TA,status,DirAvg,status,SpdAvg,
2010-04-05, 00:00:04,VALID,1000.73,VALID,0,VALID,94.2716,VALID,0,VALID,23.5841,VALID,186,VALID,1.26445,
2010-04-05, 00:01:04,VALID,1000.69,VALID,0,VALID,94.2792,VALID,0,VALID,23.6427,VALID,188,VALID,1.88633,
2010-04-05, 00:02:04,VALID,1000.65,VALID,0,VALID,94.264,VALID,0,VALID,23.6036,VALID,193,VALID,1.57695,
2010-04-05, 00:03:04,VALID,1000.63,VALID,0,VALID,94.2563,VALID,0,VALID,23.6232,VALID,184,VALID,1.25781,
2010-04-05, 00:04:04,VALID,1000.66,VALID,0,VALID,94.264,VALID,0,VALID,23.6232,VALID,182,VALID,1.2457,
2010-04-05, 00:05:04,VALID,1000.65,VALID,0,VALID,94.2563,VALID,0,VALID,23.6427,VALID,169,VALID,0.727734,
2010-04-05, 00:06:04,VALID,1000.64,VALID,0,VALID,94.2716,VALID,0,VALID,23.6232,VALID,145,VALID,1.14531,
2010-04-05, 00:07:04,VALID,1000.64,VALID,0,VALID,94.264,VALID,0,VALID,23.5841,VALID,140,VALID,0.948438,
2010-04-05, 00:08:04,VALID,1000.64,VALID,0,VALID,94.2945,VALID,0,VALID,23.5841,VALID,134,VALID,0.567969,
2010-04-05, 00:09:04,VALID,1000.66,VALID,0,VALID,94.2563,VALID,0,VALID,23.5841,VALID,128,VALID,0.720703,
2010-04-05, 00:10:04,VALID,1000.64,VALID,0,VALID,94.2716,VALID,0,VALID,23.5646,VALID,128,VALID,1.03164,
2010-04-05, 00:11:04,VALID,1000.64,VALID,0.5,VALID,94.2945,VALID,0,VALID,23.5841,VALID,133,VALID,0.9875,
2010-04-05, 00:12:04,VALID,1000.62,VALID,0,VALID,94.2945,VALID,0,VALID,23.5841,VALID,142,VALID,1.10352,
2010-04-05, 00:13:04,VALID,1000.61,VALID,0,VALID,94.2792,VALID,0,VALID,23.5841,VALID,147,VALID,1.3375,
2010-04-05, 00:14:04,VALID,1000.64,VALID,0,VALID,94.2716,VALID,0,VALID,23.6036,VALID,146,VALID,1.05977,
2010-04-05, 00:15:04,VALID,1000.61,VALID,0,VALID,94.264,VALID,0,VALID,23.6232,VALID,148,VALID,1.21094,
2010-04-05, 00:16:04,VALID,1000.63,VALID,0,VALID,94.2945,VALID,0,VALID,23.6232,VALID,140,VALID,1.41953,
2010-04-05, 00:17:04,VALID,1000.64,VALID,0,VALID,94.2792,VALID,0,VALID,23.664,VALID,157,VALID,1.35,
2010-04-05, 00:18:04,VALID,1000.62,VALID,0,VALID,94.2792,VALID,0,VALID,23.6622,VALID,153,VALID,1.39063,
2010-04-05, 00:19:04,VALID,1000.62,VALID,0,VALID,94.264,VALID,0,VALID,23.7012,VALID,166,VALID,1.34375,
2010-04-05, 00:20:04,VALID,1000.63,VALID,0,VALID,94.2716,VALID,0,VALID,23.7012,VALID,159,VALID,1.31523,
2010-04-05, 00:21:04,VALID,1000.6,VALID,0,VALID,94.2792,VALID,0,VALID,23.7207,VALID,171,VALID,1.16367,
2010-04-05, 00:22:04,VALID,1000.61,VALID,0,VALID,94.2716,VALID,0,VALID,23.7402,VALID,159,VALID,1.08359,
2010-04-05, 00:23:04,VALID,1000.6,VALID,0,VALID,94.2868,VALID,0,VALID,23.7402,VALID,155,VALID,0.751953,
2010-04-05, 00:24:04,VALID,1000.57,VALID,0,VALID,94.2487,VALID,0,VALID,23.7597,VALID,143,VALID,1.03008,
2010-04-05, 00:25:04,VALID,1000.55,VALID,0,VALID,94.264,VALID,0,VALID,23.7793,VALID,147,VALID,0.795313,
2010-04-05, 00:26:04,VALID,1000.52,VALID,0,VALID,94.2945,VALID,0,VALID,23.7793,VALID,136,VALID,0.846094,
2010-04-05, 00:27:04,VALID,1000.52,VALID,0,VALID,94.2487,VALID,0,VALID,23.7579,VALID,146,VALID,1.16016,
2010-04-05, 00:28:04,VALID,1000.56,VALID,0,VALID,94.2563,VALID,0,VALID,23.7793,VALID,133,VALID,1.08203,
2010-04-05, 00:29:04,VALID,1000.56,VALID,0,VALID,94.2563,VALID,0,VALID,23.7579,VALID,155,VALID,0.896875,
2010-04-05, 00:30:04,VALID,1000.54,VALID,0,VALID,94.2563,VALID,0,VALID,23.7579,VALID,153,VALID,0.548047,
2010-04-05, 00:31:04,VALID,1000.5,VALID,0,VALID,94.264,VALID,0,VALID,23.7579,VALID,150,VALID,0.832422,
2010-04-05, 00:32:04,VALID,1000.49,VALID,0,VALID,94.2716,VALID,0,VALID,23.7579,VALID,143,VALID,0.619531,
2010-04-05, 00:33:04,VALID,1000.48,VALID,0,VALID,94.264,VALID,0,VALID,23.7793,VALID,139,VALID,0.521484,
2010-04-05, 00:34:04,VALID,1000.47,VALID,0,VALID,94.2487,VALID,0,VALID,23.7793,VALID,133,VALID,0.689453,
2010-04-05, 00:35:04,VALID,1000.46,VALID,0,VALID,94.2563,VALID,0,VALID,23.7793,VALID,133,VALID,0.559375,
2010-04-05, 00:36:04,VALID,1000.44,VALID,0,VALID,94.2716,VALID,0,VALID,23.7793,VALID,140,VALID,0.655469,
2010-04-05, 00:37:04,VALID,1000.43,VALID,0,VALID,94.2868,VALID,0,VALID,23.7988,VALID,132,VALID,0.925781,
2010-04-05, 00:38:04,VALID,1000.44,VALID,0,VALID,94.264,VALID,0,VALID,23.8183,VALID,119,VALID,0.885156,
2010-04-05, 00:39:04,VALID,1000.43,VALID,0,VALID,94.2411,VALID,0,VALID,23.7988,VALID,121,VALID,0.926562,
2010-04-05, 00:40:04,VALID,1000.42,VALID,0,VALID,94.2792,VALID,0,VALID,23.7793,VALID,151,VALID,0.595703,
2010-04-05, 00:41:04,VALID,1000.42,VALID,0,VALID,94.2563,VALID,0,VALID,23.8183,VALID,150,VALID,0.705469,
2010-04-05, 00:42:04,VALID,1000.4,VALID,0,VALID,94.264,VALID,0,VALID,23.8183,VALID,162,VALID,0,
2010-04-05, 00:43:04,VALID,1000.42,VALID,0,VALID,94.264,VALID,0,VALID,23.8573,VALID,179,VALID,1.06562,
2010-04-05, 00:44:04,VALID,1000.41,VALID,0,VALID,94.2563,VALID,0,VALID,23.875,VALID,191,VALID,1.14531,
2010-04-05, 00:45:04,VALID,1000.4,VALID,0,VALID,94.2563,VALID,0,VALID,23.8963,VALID,189,VALID,1.22344,
2010-04-05, 00:46:04,VALID,1000.4,VALID,0,VALID,94.2411,VALID,0,VALID,23.8963,VALID,193,VALID,1.40078,
2010-04-05, 00:47:04,VALID,1000.41,VALID,0,VALID,94.2716,VALID,0,VALID,23.8945,VALID,198,VALID,1.00977,
2010-04-05, 00:48:04,VALID,1000.39,VALID,0,VALID,94.2487,VALID,0,VALID,23.9159,VALID,236,VALID,1.20703,
2010-04-05, 00:49:04,VALID,1000.4,VALID,0,VALID,94.2563,VALID,0,VALID,23.9159,VALID,235,VALID,1.14922,
2010-04-05, 00:50:04,VALID,1000.35,VALID,0,VALID,94.264,VALID,0,VALID,23.8963,VALID,245,VALID,1.16094,
2010-04-05, 00:51:04,VALID,1000.36,VALID,0,VALID,94.2487,VALID,0,VALID,23.8768,VALID,257,VALID,1.04219,
2010-04-05, 00:52:04,VALID,1000.33,VALID,0,VALID,94.2411,VALID,0,VALID,23.8555,VALID,244,VALID,0.816406,
2010-04-05, 00:53:04,VALID,1000.35,VALID,0,VALID,94.2411,VALID,0,VALID,23.8591,VALID,248,VALID,0.943359,
2010-04-05, 00:54:04,VALID,1000.31,VALID,0,VALID,94.2487,VALID,0,VALID,23.8573,VALID,237,VALID,0.266406,
2010-04-05, 00:55:04,VALID,1000.32,VALID,0.5,VALID,94.2411,VALID,0,VALID,23.8573,VALID,258,VALID,0.632031,
2010-04-05, 00:56:04,VALID,1000.32,VALID,0.5,VALID,94.2487,VALID,0,VALID,23.8165,VALID,258,VALID,0,
2010-04-05, 00:57:04,VALID,1000.29,VALID,1,VALID,94.264,VALID,0,VALID,23.8165,VALID,256,VALID,0.602344,
2010-04-05, 00:58:04,VALID,1000.22,VALID,0,VALID,94.2487,VALID,0,VALID,23.8378,VALID,218,VALID,1.04297,
2010-04-05, 00:59:04,VALID,1000.26,VALID,0,VALID,94.2563,VALID,0,VALID,23.8378,VALID,223,VALID,1.05156,
2010-04-05, 01:00:04,VALID,1000.21,VALID,0.5,VALID,94.2487,VALID,0,VALID,23.8183,VALID,219,VALID,0.907031,
2010-04-05, 01:01:04,VALID,1000.25,VALID,0,VALID,94.264,VALID,0,VALID,23.8165,VALID,231,VALID,1.01328,
2010-04-05, 01:02:04,VALID,1000.21,VALID,0,VALID,94.2563,VALID,0,VALID,23.8378,VALID,182,VALID,0.491797,
2010-04-05, 01:03:04,VALID,1000.24,VALID,0.5,VALID,94.2563,VALID,0,VALID,23.8573,VALID,225,VALID,1.01641,
2010-04-05, 01:04:04,VALID,1000.21,VALID,0,VALID,94.264,VALID,0,VALID,23.8768,VALID,237,VALID,1.16094,
2010-04-05, 01:05:04,VALID,1000.19,VALID,0,VALID,94.2563,VALID,0,VALID,23.8963,VALID,228,VALID,1.26602,
2010-04-05, 01:06:04,VALID,1000.14,VALID,0,VALID,94.2411,VALID,0,VALID,23.9159,VALID,218,VALID,0.80625,
2010-04-05, 01:07:04,VALID,1000.16,VALID,0.5,VALID,94.2563,VALID,0,VALID,23.9159,VALID,201,VALID,0.554297,
2010-04-05, 01:08:04,VALID,1000.15,VALID,0,VALID,94.2792,VALID,0,VALID,23.9549,VALID,237,VALID,0.591016,
2010-04-05, 01:09:04,VALID,1000.18,VALID,0,VALID,94.2487,VALID,0,VALID,23.9336,VALID,193,VALID,0.6375,
2010-04-05, 01:10:04,VALID,1000.19,VALID,0,VALID,94.264,VALID,0,VALID,23.9549,VALID,210,VALID,0.583594,
2010-04-05, 01:11:04,VALID,1000.19,VALID,0,VALID,94.2563,VALID,0,VALID,23.9549,VALID,157,VALID,1.16953,
2010-04-05, 01:12:04,VALID,1000.22,VALID,0,VALID,94.2334,VALID,0,VALID,23.9159,VALID,155,VALID,0.309766,
2010-04-05, 01:13:04,VALID,1000.21,VALID,0,VALID,94.2334,VALID,0,VALID,23.9354,VALID,161,VALID,0,
2010-04-05, 01:14:04,VALID,1000.18,VALID,0,VALID,94.2563,VALID,0,VALID,23.914,VALID,161,VALID,0,
2010-04-05, 01:15:04,VALID,1000.17,VALID,0,VALID,94.2563,VALID,0,VALID,23.9354,VALID,161,VALID,0,
2010-04-05, 01:16:04,VALID,1000.15,VALID,0,VALID,94.2334,VALID,0,VALID,23.914,VALID,161,VALID,0,
2010-04-05, 01:17:04,VALID,1000.06,VALID,0,VALID,94.2411,VALID,0,VALID,23.9549,VALID,161,VALID,0,
2010-04-05, 01:18:04,VALID,1000.04,VALID,0,VALID,94.2487,VALID,0,VALID,23.9354,VALID,161,VALID,0.366406,
2010-04-05, 01:19:04,VALID,1000,VALID,0,VALID,94.2716,VALID,0,VALID,23.9354,VALID,161,VALID,0.371094,
2010-04-05, 01:20:04,VALID,1000,VALID,0,VALID,94.2487,VALID,0,VALID,23.9354,VALID,166,VALID,0.639063,
2010-04-05, 01:21:04,VALID,999.992,VALID,0,VALID,94.2563,VALID,0,VALID,23.9744,VALID,150,VALID,1.09102,
2010-04-05, 01:22:04,VALID,999.965,VALID,0,VALID,94.2716,VALID,0,VALID,23.9939,VALID,134,VALID,1.14375,
2010-04-05, 01:23:04,VALID,1000.01,VALID,0,VALID,94.2487,VALID,0,VALID,23.9921,VALID,126,VALID,1.14297,
2010-04-05, 01:24:04,VALID,1000,VALID,0,VALID,94.2563,VALID,0,VALID,24.0329,VALID,126,VALID,1.06992,
2010-04-05, 01:25:04,VALID,1000.02,VALID,0.5,VALID,94.2487,VALID,0,VALID,24.0525,VALID,124,VALID,1.0457,
2010-04-05, 01:26:04,VALID,1000.01,VALID,0,VALID,94.2563,VALID,0,VALID,24.0329,VALID,127,VALID,1.08906,
2010-04-05, 01:27:04,VALID,1000.03,VALID,0,VALID,94.2411,VALID,0,VALID,24.0525,VALID,136,VALID,1.17344,
2010-04-05, 01:28:04,VALID,1000.02,VALID,0.5,VALID,94.2411,VALID,0,VALID,24.0525,VALID,123,VALID,1.3793,
2010-04-05, 01:29:04,VALID,999.966,VALID,0.5,VALID,94.2411,VALID,0,VALID,24.0116,VALID,128,VALID,1.56289,
2010-04-05, 01:30:04,VALID,999.947,VALID,0.5,VALID,94.2487,VALID,0,VALID,24.0116,VALID,146,VALID,1.87812,
2010-04-05, 01:31:04,VALID,999.882,VALID,0,VALID,94.264,VALID,0,VALID,24.0311,VALID,158,VALID,1.99219,
2010-04-05, 01:32:04,VALID,999.85,VALID,0.5,VALID,94.2716,VALID,0,VALID,24.0329,VALID,162,VALID,2.12852,
2010-04-05, 01:33:04,VALID,999.835,VALID,0,VALID,94.264,VALID,0,VALID,24.072,VALID,160,VALID,2.03594,
2010-04-05, 01:34:04,VALID,999.791,VALID,0,VALID,94.2487,VALID,0,VALID,24.0525,VALID,162,VALID,1.95508,
2010-04-05, 01:35:04,VALID,999.817,VALID,0,VALID,94.264,VALID,0,VALID,24.0701,VALID,163,VALID,1.38633,
2010-04-05, 01:36:04,VALID,999.786,VALID,0,VALID,94.2487,VALID,0,VALID,24.0506,VALID,153,VALID,1.71875,
2010-04-05, 01:37:04,VALID,999.792,VALID,0,VALID,94.2334,VALID,0,VALID,24.0525,VALID,149,VALID,1.17891,
2010-04-05, 01:38:04,VALID,999.778,VALID,0,VALID,94.2411,VALID,0,VALID,24.0311,VALID,144,VALID,1.1457,
2010-04-05, 01:39:04,VALID,999.781,VALID,0,VALID,94.2411,VALID,0,VALID,24.0311,VALID,137,VALID,0.779297,
2010-04-05, 01:40:04,VALID,999.766,VALID,0,VALID,94.2411,VALID,0,VALID,24.0329,VALID,111,VALID,1.30742,
2010-04-05, 01:41:04,VALID,999.741,VALID,0,VALID,94.2334,VALID,0,VALID,24.0134,VALID,87,VALID,1.42656,
2010-04-05, 01:42:04,VALID,999.77,VALID,0,VALID,94.2563,VALID,0,VALID,23.9939,VALID,60,VALID,1.5418,
2010-04-05, 01:43:04,VALID,999.693,VALID,0,VALID,94.2411,VALID,0,VALID,23.9939,VALID,64,VALID,1.93359,
2010-04-05, 01:44:04,VALID,999.678,VALID,0,VALID,94.2411,VALID,0,VALID,23.9531,VALID,72,VALID,1.89648,
2010-04-05, 01:45:04,VALID,999.619,VALID,0,VALID,94.2487,VALID,0,VALID,23.9549,VALID,92,VALID,1.78047,
2010-04-05, 01:46:04,VALID,999.58,VALID,0,VALID,94.264,VALID,0,VALID,23.9354,VALID,99,VALID,1.96055,
2010-04-05, 01:47:04,VALID,999.573,VALID,0,VALID,94.2716,VALID,0,VALID,23.9354,VALID,109,VALID,1.00273,
2010-04-05, 01:48:04,VALID,999.54,VALID,0,VALID,94.2792,VALID,0,VALID,23.9354,VALID,119,VALID,1.70508,
2010-04-05, 01:49:04,VALID,999.505,VALID,0,VALID,94.2411,VALID,0,VALID,23.914,VALID,131,VALID,1.49883,
2010-04-05, 01:50:04,VALID,999.483,VALID,0,VALID,94.264,VALID,0,VALID,23.9159,VALID,135,VALID,1.37461,
2010-04-05, 01:51:04,VALID,999.454,VALID,0,VALID,94.2563,VALID,0,VALID,23.9354,VALID,157,VALID,1.4043,
2010-04-05, 01:52:04,VALID,999.443,VALID,0,VALID,94.2792,VALID,0,VALID,23.9354,VALID,165,VALID,1.26758,
2010-04-05, 01:53:04,VALID,999.427,VALID,0,VALID,94.2792,VALID,0,VALID,23.9354,VALID,180,VALID,1.26797,
2010-04-05, 01:54:04,VALID,999.414,VALID,0,VALID,94.2716,VALID,0,VALID,23.9549,VALID,172,VALID,1.63086,
2010-04-05, 01:55:04,VALID,999.379,VALID,0,VALID,94.2716,VALID,0,VALID,23.9549,VALID,182,VALID,1.8,
2010-04-05, 01:56:04,VALID,999.387,VALID,0,VALID,94.264,VALID,0,VALID,23.9354,VALID,181,VALID,1.54688,
2010-04-05, 01:57:04,VALID,999.362,VALID,0,VALID,94.264,VALID,0,VALID,23.9531,VALID,179,VALID,1.59805,
2010-04-05, 01:58:04,VALID,999.344,VALID,0,VALID,94.2716,VALID,0,VALID,23.9549,VALID,176,VALID,1.57383,
2010-04-05, 01:59:04,VALID,999.332,VALID,0,VALID,94.2792,VALID,0,VALID,23.9531,VALID,191,VALID,1.4543,
2010-04-05, 02:00:04,VALID,999.324,VALID,0,VALID,94.2792,VALID,0,VALID,23.9549,VALID,183,VALID,1.32344,
2010-04-05, 02:01:04,VALID,999.315,VALID,0,VALID,94.2716,VALID,0,VALID,23.9744,VALID,184,VALID,0.792188,
2010-04-05, 02:02:04,VALID,999.329,VALID,0,VALID,94.2716,VALID,0,VALID,23.9531,VALID,207,VALID,0.557422,
2010-04-05, 02:03:04,VALID,999.359,VALID,0,VALID,94.2716,VALID,0,VALID,23.9939,VALID,207,VALID,0,
2010-04-05, 02:04:04,VALID,999.361,VALID,0,VALID,94.2716,VALID,0,VALID,23.9726,VALID,272,VALID,0.432031,
2010-04-05, 02:05:04,VALID,999.343,VALID,0,VALID,94.264,VALID,0,VALID,23.9726,VALID,272,VALID,0.231641,
2010-04-05, 02:06:04,VALID,999.32,VALID,0,VALID,94.2868,VALID,0,VALID,23.9939,VALID,272,VALID,0,
2010-04-05, 02:07:04,VALID,999.303,VALID,0,VALID,94.2563,VALID,0,VALID,23.9744,VALID,272,VALID,0,
2010-04-05, 02:08:04,VALID,999.313,VALID,0,VALID,94.2716,VALID,0,VALID,23.9531,VALID,272,VALID,0,
2010-04-05, 02:09:04,VALID,999.306,VALID,0,VALID,94.2716,VALID,0,VALID,23.9744,VALID,269,VALID,0.228125,
2010-04-05, 02:10:04,VALID,999.274,VALID,0,VALID,94.2487,VALID,0,VALID,23.9549,VALID,253,VALID,0.244531,
2010-04-05, 02:11:04,VALID,999.272,VALID,0,VALID,94.264,VALID,0,VALID,23.914,VALID,230,VALID,0,
2010-04-05, 02:12:04,VALID,999.25,VALID,0,VALID,94.264,VALID,0,VALID,23.8963,VALID,194,VALID,0.395703,
2010-04-05, 02:13:04,VALID,999.186,VALID,0,VALID,94.2868,VALID,0,VALID,23.8963,VALID,194,VALID,0.460547,
2010-04-05, 02:14:04,VALID,999.215,VALID,0,VALID,94.2792,VALID,0,VALID,23.8573,VALID,194,VALID,0.392969,
2010-04-05, 02:15:04,VALID,999.18,VALID,0,VALID,94.2716,VALID,0,VALID,23.8378,VALID,194,VALID,0.0527344,
2010-04-05, 02:16:04,VALID,999.191,VALID,0,VALID,94.2945,VALID,0,VALID,23.8555,VALID,194,VALID,0,
2010-04-05, 02:17:04,VALID,999.183,VALID,0,VALID,94.2868,VALID,0,VALID,23.875,VALID,194,VALID,0,
2010-04-05, 02:18:04,VALID,999.219,VALID,0,VALID,94.2868,VALID,0,VALID,23.875,VALID,194,VALID,0.0121094,
2010-04-05, 02:19:04,VALID,999.213,VALID,0,VALID,94.2792,VALID,0,VALID,23.8555,VALID,194,VALID,0,
2010-04-05, 02:20:04,VALID,999.211,VALID,0,VALID,94.2868,VALID,0,VALID,23.8963,VALID,245,VALID,0.626953,
2010-04-05, 02:21:04,VALID,999.2,VALID,0,VALID,94.3021,VALID,0,VALID,23.875,VALID,229,VALID,0.678906,
2010-04-05, 02:22:04,VALID,999.197,VALID,0,VALID,94.2868,VALID,0,VALID,23.8945,VALID,229,VALID,0.683984,
2010-04-05, 02:23:04,VALID,999.217,VALID,0,VALID,94.2792,VALID,0,VALID,23.8555,VALID,219,VALID,0.712891,
2010-04-05, 02:24:04,VALID,999.189,VALID,0,VALID,94.2868,VALID,0.112286,VALID,23.875,VALID,219,VALID,0.723047,
2010-04-05, 02:25:04,VALID,999.22,VALID,0,VALID,94.2792,VALID,0.112286,VALID,23.875,VALID,221,VALID,0.66875,
2010-04-05, 02:26:04,VALID,999.261,VALID,0,VALID,94.2792,VALID,0,VALID,23.914,VALID,242,VALID,1.04414,
2010-04-05, 02:27:04,VALID,999.298,VALID,0,VALID,94.2868,VALID,0,VALID,23.8945,VALID,249,VALID,0.279297,
2010-04-05, 02:28:04,VALID,999.299,VALID,0,VALID,94.2945,VALID,0,VALID,23.8945,VALID,224,VALID,0.48125,
2010-04-05, 02:29:04,VALID,999.328,VALID,0,VALID,94.2792,VALID,0,VALID,23.875,VALID,225,VALID,0.808594,
2010-04-05, 02:30:04,VALID,999.347,VALID,0,VALID,94.2868,VALID,0,VALID,23.8342,VALID,258,VALID,0.615234,
2010-04-05, 02:31:04,VALID,999.358,VALID,0,VALID,94.2792,VALID,0,VALID,23.8165,VALID,237,VALID,0.321484,
2010-04-05, 02:32:04,VALID,999.377,VALID,0,VALID,94.2868,VALID,0,VALID,23.8378,VALID,237,VALID,0.264844,
2010-04-05, 02:33:04,VALID,999.414,VALID,0,VALID,94.2945,VALID,0,VALID,23.8573,VALID,237,VALID,0.274219,
2010-04-05, 02:34:04,VALID,999.405,VALID,0,VALID,94.3097,VALID,0,VALID,23.8378,VALID,237,VALID,0.178125,
2010-04-05, 02:35:04,VALID,999.426,VALID,0,VALID,94.2792,VALID,0,VALID,23.8378,VALID,237,VALID,0.261719,
2010-04-05, 02:36:04,VALID,999.404,VALID,0,VALID,94.2868,VALID,0,VALID,23.8555,VALID,237,VALID,0,
2010-04-05, 02:37:04,VALID,999.403,VALID,0,VALID,94.2945,VALID,0,VALID,23.8573,VALID,237,VALID,0,
2010-04-05, 02:38:04,VALID,999.402,VALID,0,VALID,94.2868,VALID,0,VALID,23.8573,VALID,237,VALID,0,
2010-04-05, 02:39:04,VALID,999.39,VALID,0,VALID,94.2945,VALID,0,VALID,23.8165,VALID,237,VALID,0,
2010-04-05, 02:40:04,VALID,999.404,VALID,0,VALID,94.2945,VALID,0,VALID,23.836,VALID,237,VALID,0,
2010-04-05, 02:41:04,VALID,999.42,VALID,0,VALID,94.3021,VALID,0,VALID,23.8165,VALID,237,VALID,0,
2010-04-05, 02:42:04,VALID,999.407,VALID,0,VALID,94.3174,VALID,0,VALID,23.8165,VALID,237,VALID,0,
2010-04-05, 02:43:04,VALID,999.423,VALID,0,VALID,94.3021,VALID,0,VALID,23.8183,VALID,237,VALID,0,
2010-04-05, 02:44:05,VALID,999.416,VALID,0,VALID,94.3174,VALID,0,VALID,23.8183,VALID,70,VALID,0.765625,
2010-04-05, 02:45:05,VALID,999.398,VALID,0,VALID,94.3021,VALID,0,VALID,23.797,VALID,74,VALID,0.845312,
2010-04-05, 02:46:05,VALID,999.41,VALID,0,VALID,94.3174,VALID,0,VALID,23.8183,VALID,74,VALID,0.669922,
2010-04-05, 02:47:05,VALID,999.429,VALID,0,VALID,94.2868,VALID,0,VALID,23.8183,VALID,79,VALID,0.777734,
2010-04-05, 02:48:05,VALID,999.393,VALID,0,VALID,94.3021,VALID,0,VALID,23.8183,VALID,80,VALID,0.542578,
2010-04-05, 02:49:05,VALID,999.396,VALID,0,VALID,94.3326,VALID,0,VALID,23.8183,VALID,85,VALID,0.697266,
2010-04-05, 02:50:05,VALID,999.365,VALID,0,VALID,94.325,VALID,0,VALID,23.8573,VALID,85,VALID,0.696094,
2010-04-05, 02:51:05,VALID,999.346,VALID,0,VALID,94.3097,VALID,0,VALID,23.8555,VALID,85,VALID,0.794531,
2010-04-05, 02:52:05,VALID,999.335,VALID,0,VALID,94.2945,VALID,0,VALID,23.8573,VALID,85,VALID,0.489062,
2010-04-05, 02:53:05,VALID,999.344,VALID,0,VALID,94.3021,VALID,0,VALID,23.8768,VALID,85,VALID,0.383203,
2010-04-05, 02:54:05,VALID,999.341,VALID,0,VALID,94.2945,VALID,0,VALID,23.8555,VALID,85,VALID,0.00585938,
2010-04-05, 02:55:05,VALID,999.301,VALID,0,VALID,94.3174,VALID,0,VALID,23.8768,VALID,85,VALID,0,
2010-04-05, 02:56:05,VALID,999.271,VALID,0,VALID,94.3097,VALID,0,VALID,23.8555,VALID,85,VALID,0,
2010-04-05, 02:57:05,VALID,999.305,VALID,0,VALID,94.3021,VALID,0,VALID,23.8573,VALID,85,VALID,0.00117188,
2010-04-05, 02:58:05,VALID,999.327,VALID,0,VALID,94.3097,VALID,0,VALID,23.836,VALID,85,VALID,0,
2010-04-05, 02:59:05,VALID,999.273,VALID,0,VALID,94.2945,VALID,0,VALID,23.8573,VALID,85,VALID,0,
2010-04-05, 03:00:05,VALID,999.312,VALID,0,VALID,94.3021,VALID,0,VALID,23.8768,VALID,85,VALID,0,
2010-04-05, 03:01:05,VALID,999.286,VALID,0,VALID,94.3097,VALID,0,VALID,23.836,VALID,85,VALID,0,
2010-04-05, 03:02:05,VALID,999.319,VALID,0,VALID,94.3021,VALID,0,VALID,23.836,VALID,85,VALID,0,
2010-04-05, 03:03:05,VALID,999.308,VALID,0,VALID,94.2945,VALID,0,VALID,23.8378,VALID,85,VALID,0,
2010-04-05, 03:04:05,VALID,999.311,VALID,0,VALID,94.3097,VALID,0,VALID,23.8165,VALID,85,VALID,0,
2010-04-05, 03:05:05,VALID,999.345,VALID,0,VALID,94.325,VALID,0,VALID,23.8573,VALID,85,VALID,0,
2010-04-05, 03:06:05,VALID,999.32,VALID,0,VALID,94.3097,VALID,0,VALID,23.836,VALID,85,VALID,0,
2010-04-05, 03:07:05,VALID,999.368,VALID,0,VALID,94.2868,VALID,0,VALID,23.8555,VALID,181,VALID,0,
2010-04-05, 03:08:05,VALID,999.346,VALID,0,VALID,94.3021,VALID,0,VALID,23.8555,VALID,181,VALID,0,
2010-04-05, 03:09:05,VALID,999.359,VALID,0,VALID,94.3021,VALID,0,VALID,23.836,VALID,181,VALID,0,
2010-04-05, 03:10:05,VALID,999.346,VALID,0,VALID,94.2945,VALID,0,VALID,23.8768,VALID,179,VALID,0,
2010-04-05, 03:11:05,VALID,999.332,VALID,0,VALID,94.3097,VALID,0,VALID,23.8963,VALID,177,VALID,0,
2010-04-05, 03:12:05,VALID,999.326,VALID,0,VALID,94.2792,VALID,0,VALID,23.8963,VALID,159,VALID,0,
2010-04-05, 03:13:05,VALID,999.32,VALID,0,VALID,94.2945,VALID,0,VALID,23.875,VALID,151,VALID,0.112891,
2010-04-05, 03:14:05,VALID,999.332,VALID,0,VALID,94.2945,VALID,0,VALID,23.8768,VALID,131,VALID,0.824219,
2010-04-05, 03:15:05,VALID,999.278,VALID,0,VALID,94.2868,VALID,0,VALID,23.8573,VALID,131,VALID,0.965234,
2010-04-05, 03:16:05,VALID,999.303,VALID,0,VALID,94.3097,VALID,0,VALID,23.8378,VALID,131,VALID,0.717188,
2010-04-05, 03:17:05,VALID,999.298,VALID,0,VALID,94.3097,VALID,0,VALID,23.8165,VALID,131,VALID,0.680859,
2010-04-05, 03:18:05,VALID,999.282,VALID,0,VALID,94.3021,VALID,0,VALID,23.7775,VALID,131,VALID,0.499219,
2010-04-05, 03:19:05,VALID,999.287,VALID,0,VALID,94.3174,VALID,0,VALID,23.797,VALID,131,VALID,0.347266,
2010-04-05, 03:20:05,VALID,999.27,VALID,0,VALID,94.2945,VALID,0,VALID,23.8183,VALID,131,VALID,0.44375,
2010-04-05, 03:21:05,VALID,999.277,VALID,0,VALID,94.3097,VALID,0,VALID,23.8183,VALID,131,VALID,0.335938,
2010-04-05, 03:22:05,VALID,999.299,VALID,0,VALID,94.3097,VALID,0,VALID,23.797,VALID,140,VALID,0.534766,
2010-04-05, 03:23:05,VALID,999.266,VALID,0,VALID,94.325,VALID,0,VALID,23.7775,VALID,140,VALID,0.528516,
2010-04-05, 03:24:05,VALID,999.278,VALID,0,VALID,94.3174,VALID,0,VALID,23.7775,VALID,140,VALID,0.474219,
2010-04-05, 03:25:05,VALID,999.268,VALID,0,VALID,94.3174,VALID,0,VALID,23.7579,VALID,140,VALID,0.495703,
2010-04-05, 03:26:05,VALID,999.233,VALID,0,VALID,94.325,VALID,0,VALID,23.7793,VALID,140,VALID,0,
2010-04-05, 03:27:05,VALID,999.238,VALID,0,VALID,94.3097,VALID,0,VALID,23.7579,VALID,142,VALID,0,
2010-04-05, 03:28:05,VALID,999.18,VALID,0,VALID,94.325,VALID,0,VALID,23.7775,VALID,142,VALID,0,
2010-04-05, 03:29:05,VALID,999.174,VALID,0,VALID,94.3174,VALID,0,VALID,23.7579,VALID,142,VALID,0,
2010-04-05, 03:30:05,VALID,999.198,VALID,0,VALID,94.3174,VALID,0,VALID,23.7579,VALID,143,VALID,0,
2010-04-05, 03:31:05,VALID,999.132,VALID,0,VALID,94.3174,VALID,0,VALID,23.7775,VALID,142,VALID,0,
2010-04-05, 03:32:05,VALID,999.084,VALID,0,VALID,94.325,VALID,0,VALID,23.7988,VALID,142,VALID,0,
2010-04-05, 03:33:05,VALID,999.046,VALID,0,VALID,94.3097,VALID,0,VALID,23.7793,VALID,142,VALID,0,
2010-04-05, 03:34:05,VALID,999.019,VALID,0,VALID,94.3326,VALID,0,VALID,23.7793,VALID,142,VALID,0,
2010-04-05, 03:35:05,VALID,998.988,VALID,0,VALID,94.325,VALID,0,VALID,23.7793,VALID,142,VALID,0,
2010-04-05, 03:36:05,VALID,999.01,VALID,0,VALID,94.325,VALID,0,VALID,23.7579,VALID,142,VALID,0,
2010-04-05, 03:37:05,VALID,999.001,VALID,0,VALID,94.325,VALID,0,VALID,23.7775,VALID,142,VALID,0,
2010-04-05, 03:38:05,VALID,999.026,VALID,0,VALID,94.325,VALID,0,VALID,23.7988,VALID,142,VALID,0,
2010-04-05, 03:39:05,VALID,999.003,VALID,0,VALID,94.3403,VALID,0,VALID,23.7988,VALID,41,VALID,0,
2010-04-05, 03:40:05,VALID,998.999,VALID,0,VALID,94.3403,VALID,0,VALID,23.8183,VALID,18,VALID,0,
2010-04-05, 03:41:05,VALID,999.015,VALID,0,VALID,94.3174,VALID,0,VALID,23.8183,VALID,18,VALID,0,
2010-04-05, 03:42:05,VALID,999.041,VALID,0,VALID,94.3097,VALID,0,VALID,23.7793,VALID,18,VALID,0,
2010-04-05, 03:43:05,VALID,999.042,VALID,0,VALID,94.2868,VALID,0,VALID,23.7579,VALID,18,VALID,0,
2010-04-05, 03:44:05,VALID,999.058,VALID,0,VALID,94.2868,VALID,0,VALID,23.7189,VALID,31,VALID,0.624609,
2010-04-05, 03:45:05,VALID,999.078,VALID,0,VALID,94.3403,VALID,0,VALID,23.7207,VALID,44,VALID,0.675781,
2010-04-05, 03:46:05,VALID,999.124,VALID,0,VALID,94.3479,VALID,0,VALID,23.7189,VALID,61,VALID,0.731641,
2010-04-05, 03:47:05,VALID,999.142,VALID,0,VALID,94.3631,VALID,0,VALID,23.7384,VALID,61,VALID,0.761328,
2010-04-05, 03:48:05,VALID,999.161,VALID,0,VALID,94.3403,VALID,0,VALID,23.7775,VALID,63,VALID,0.966797,
2010-04-05, 03:49:05,VALID,999.175,VALID,0,VALID,94.3555,VALID,0,VALID,23.8183,VALID,75,VALID,1.38789,